Overview Statistics Trail Chart Weather Telemetry Raw packets
 

This is the latest recevied weather packets stored in our database for station/object K6GMW. If no packets are shown the sender has not sent any weather packets the latest 10 day(s).

<< 111 112 113 114 >>
Time Temp. Humidity Pressure Rain* Wind** Luminosity Snow
1787784375 38.89° C 34% 1011.9 hPa 0 mm - 193 W/m² -
1787784070 38.89° C 34% 1011.9 hPa 0 mm - 98 W/m² -
1787783767 39.44° C 33% 1012 hPa 0 mm - 289 W/m² -
1787783466 40° C 33% 1012 hPa 0 mm - 316 W/m² -
1787783161 38.89° C 34% 1012.1 hPa 0 mm - 342 W/m² -
1787782856 38.89° C 34% 1012.3 hPa 0 mm - 353 W/m² -
1787782556 38.89° C 34% 1012.3 hPa 0 mm - 391 W/m² -
1787782251 38.33° C 35% 1012.4 hPa 0 mm - 405 W/m² -
1787781947 37.78° C 35% 1012.5 hPa 0 mm - 204 W/m² -
1787781642 37.78° C 36% 1012.6 hPa 0 mm - 174 W/m² -
1787781339 37.78° C 35% 1012.6 hPa 0 mm - 189 W/m² -
1787781039 38.33° C 35% 1012.7 hPa 0 mm - 165 W/m² -
1787780738 38.33° C 36% 1012.8 hPa 0 mm - 490 W/m² -
1787780438 38.89° C 34% 1013 hPa 0 mm - 280 W/m² -
1787780134 37.78° C 36% 1013.2 hPa 0 mm - 542 W/m² -
1787779829 37.78° C 36% 1013.4 hPa 0 mm - 259 W/m² -
1787779528 37.78° C 36% 1013.4 hPa 0 mm - 243 W/m² -
1787779223 37.78° C 36% 1013.6 hPa 0 mm - 231 W/m² -
1787778923 37.78° C 36% 1013.8 hPa 0 mm - 222 W/m² -
1787778619 37.78° C 36% 1013.7 hPa 0 mm - 230 W/m² -
1787778314 37.78° C 36% 1013.8 hPa 0 mm - 240 W/m² -
1787778010 37.78° C 36% 1013.8 hPa 0 mm - 245 W/m² -
1787777704 37.78° C 36% 1014 hPa 0 mm - 271 W/m² -
1787777400 37.78° C 37% 1014 hPa 0 mm - 489 W/m² -

* Rain latest hour (hover to see other rain measurements)
** Current wind speed in m/s (hover to see current wind gust speed)